| time (UTC) | temp F | wind direction | speed MPH | gust MPH | rain 1hr in | rain 24hr in | rain mn in | humidity % | barometer mb |
| 20260504034529 | 55 | 11 | 20.0 | 26.0 | 0.00 | 0.00 | 0.00 | 39 | 999.6 |
| 20260504033029 | 55 | 335 | 22.0 | 31.0 | 0.00 | 0.00 | 0.00 | 38 | 999.4 |
| 20260504031528 | 56 | 18 | 21.0 | 30.0 | 0.00 | 0.00 | 0.00 | 39 | 999.2 |
| 20260504030034 | 56 | 21 | 20.0 | 29.0 | 0.00 | 0.00 | 0.00 | 39 | 999.1 |
| 20260504024528 | 57 | 9 | 18.0 | 25.0 | 0.00 | 0.00 | 0.00 | 39 | 999.0 |
| 20260504023026 | 58 | 23 | 20.0 | 29.0 | 0.00 | 0.00 | 0.00 | 39 | 999.0 |
| 20260504021524 | 60 | 34 | 24.0 | 29.0 | 0.00 | 0.00 | 0.00 | 36 | 999.0 |
| 20260504020034 | 62 | 17 | 13.0 | 21.0 | 0.00 | 0.00 | 0.00 | 31 | 999.0 |
| 20260504014522 | 63 | 360 | 10.0 | 14.0 | 0.00 | 0.00 | 0.00 | 29 | 999.1 |
| 20260504013025 | 64 | 341 | 12.0 | 18.0 | 0.00 | 0.00 | 0.00 | 25 | 999.2 |
| 20260504011522 | 66 | 338 | 17.0 | 22.0 | 0.00 | 0.00 | 0.00 | 23 | 999.1 |
| 20260504010021 | 67 | 360 | 13.0 | 21.0 | 0.00 | 0.00 | 0.00 | 22 | 999.2 |
| 20260504004534 | 67 | 320 | 15.0 | 24.0 | 0.00 | 0.00 | 0.00 | 23 | 999.3 |
| 20260504003018 | 67 | 344 | 16.0 | 24.0 | 0.00 | 0.00 | 0.00 | 22 | 999.3 |
| 20260504001529 | 67 | 324 | 12.0 | 21.0 | 0.00 | 0.00 | 0.00 | 22 | 999.4 |
| 20260504000014 | 67 | 322 | 21.0 | 30.0 | 0.00 | 0.00 | 0.00 | 23 | 999.7 |
| 20260503234518 | 68 | 360 | 16.0 | 26.0 | 0.00 | 0.00 | 0.00 | 22 | 999.6 |
| 20260503233013 | 68 | 312 | 20.0 | 24.0 | 0.00 | 0.00 | 0.00 | 23 | 999.7 |
| 20260503231513 | 68 | 341 | 18.0 | 25.0 | 0.00 | 0.00 | 0.00 | 23 | 999.9 |
| 20260503230010 | 67 | 322 | 16.0 | 28.0 | 0.00 | 0.00 | 0.00 | 22 | 1000.1 |
| 20260503224508 | 67 | 355 | 21.0 | 30.0 | 0.00 | 0.00 | 0.00 | 22 | 1000.1 |
| 20260503223009 | 67 | 338 | 22.0 | 29.0 | 0.00 | 0.00 | 0.00 | 22 | 1000.1 |
| 20260503221505 | 68 | 317 | 18.0 | 26.0 | 0.00 | 0.00 | 0.00 | 23 | 1000.4 |
| 20260503220016 | 67 | 329 | 22.0 | 28.0 | 0.00 | 0.00 | 0.00 | 23 | 1000.5 |
| 20260503214510 | 67 | 346 | 17.0 | 31.0 | 0.00 | 0.00 | 0.00 | 23 | 1000.7 |
| 20260503213002 | 67 | 325 | 16.0 | 28.0 | 0.00 | 0.00 | 0.00 | 24 | 1001.2 |
| 20260503211602 | 67 | 337 | 16.0 | 23.0 | 0.00 | 0.00 | 0.00 | 24 | 1001.2 |
| 20260503210057 | 66 | 340 | 16.0 | 24.0 | 0.00 | 0.00 | 0.00 | 23 | 1001.5 |
| 20260503204555 | 66 | 342 | 18.0 | 34.0 | 0.00 | 0.00 | 0.00 | 23 | 1001.8 |
| 20260503203057 | 65 | 311 | 17.0 | 23.0 | 0.00 | 0.00 | 0.00 | 24 | 1001.9 |
| 20260503201552 | 64 | 313 | 13.0 | 30.0 | 0.00 | 0.00 | 0.00 | 25 | 1002.1 |
| 20260503200052 | 64 | 305 | 16.0 | 26.0 | 0.00 | 0.00 | 0.00 | 24 | 1002.4 |
| 20260503194558 | 64 | 331 | 22.0 | 29.0 | 0.00 | 0.00 | 0.00 | 26 | 1002.9 |
| 20260503193044 | 64 | 320 | 19.0 | 28.0 | 0.00 | 0.00 | 0.00 | 26 | 1002.9 |
| 20260503191542 | 64 | 319 | 14.0 | 31.0 | 0.00 | 0.00 | 0.00 | 27 | 1003.2 |
| 20260503190045 | 63 | 291 | 18.0 | 25.0 | 0.00 | 0.00 | 0.00 | 28 | 1003.3 |
| 20260503184542 | 62 | 295 | 14.0 | 25.0 | 0.00 | 0.00 | 0.00 | 29 | 1003.5 |
| 20260503183042 | 62 | 342 | 10.0 | 22.0 | 0.00 | 0.00 | 0.00 | 30 | 1003.7 |
| 20260503181554 | 62 | 336 | 16.0 | 21.0 | 0.00 | 0.00 | 0.00 | 27 | 1003.7 |
| 20260503180138 | 61 | 347 | 11.0 | 20.0 | 0.00 | 0.00 | 0.00 | 30 | 1003.9 |
| 20260503174532 | 62 | 13 | 13.0 | 22.0 | 0.00 | 0.00 | 0.00 | 28 | 1004.2 |
| 20260503173031 | 61 | 331 | 16.0 | 21.0 | 0.00 | 0.00 | 0.00 | 28 | 1004.4 |
| 20260503171530 | 60 | 355 | 17.0 | 26.0 | 0.00 | 0.00 | 0.00 | 29 | 1004.5 |
| 20260503081527 | 48 | 140 | 3.0 | 7.0 | 0.00 | 0.00 | 0.00 | 64 | 1007.0 |
| 20260503071525 | 47 | 106 | 4.0 | 6.0 | 0.00 | 0.00 | 0.00 | 64 | 1007.1 |
| 20260503054514 | 49 | 108 | 2.0 | 6.0 | 0.00 | 0.00 | 0.00 | 61 | 1007.3 |
| 20260503053015 | 50 | 115 | 1.0 | 4.0 | 0.00 | 0.00 | 0.00 | 61 | 1007.4 |
| 20260503051507 | 49 | 115 | 0.0 | 4.0 | 0.00 | 0.00 | 0.00 | 65 | 1007.6 |
| 20260503050007 | 49 | 122 | 0.0 | 2.0 | 0.00 | 0.00 | 0.00 | 63 | 1007.6 |
| 20260503044507 | 49 | 223 | 0.0 | 2.0 | 0.00 | 0.00 | 0.00 | 62 | 1007.5 |
| 20260503043007 | 50 | 170 | 0.0 | 2.0 | 0.00 | 0.00 | 0.00 | 59 | 1007.6 |
| 20260503041506 | 51 | 211 | 2.0 | 4.0 | 0.00 | 0.00 | 0.00 | 58 | 1007.4 |
| 20260503040017 | 51 | 241 | 2.0 | 5.0 | 0.00 | 0.00 | 0.00 | 57 | 1007.5 |